When you browse on this site, cookies collect data to enhance your experience and personalize the content and advertising you see.
Visit our Privacy Policy to learn more. By continuing to use the site, you agree to this use of cookies and data.
  • In United Kingdom
  • List of Countries
  • For 7 days
  • Water Temperature
  • Satellite Maps
  • Weather Map
  • Weather Widgets
  • user-avatar
    Login

    Hourly Weather Mondovi

    Today, 20 March, Wednesday

    Time Temperature Precipitation Wind Pressure Humidity
    00:00 +3°C° 0 mm 2 mps 731 mmHg 32%
    01:00 +3°C° 0 mm 2 mps 731 mmHg 37%
    02:00 +3°C° 0 mm 2 mps 731 mmHg 40%
    03:00 +3°C° 0 mm 2 mps 731 mmHg 44%
    04:00 +2°C° 0 mm 2 mps 731 mmHg 48%
    05:00 +2°C° 0 mm 2 mps 732 mmHg 49%
    06:00 +2°C° 0 mm 2 mps 732 mmHg 50%
    07:00 +2°C° 0 mm 2 mps 732 mmHg 51%
    08:00 +4°C° 0 mm 2 mps 732 mmHg 50%
    09:00 +5°C° 0 mm 2 mps 733 mmHg 50%
    10:00 +6°C° 0 mm 2 mps 733 mmHg 49%
    11:00 +7°C° 0 mm 2 mps 733 mmHg 46%
    12:00 +9°C° 0 mm 2 mps 733 mmHg 43%
    13:00 +10°C° 0 mm 3 mps 733 mmHg 41%
    14:00 +10°C° 0 mm 2 mps 733 mmHg 39%
    15:00 +10°C° 0 mm 2 mps 733 mmHg 38%
    16:00 +10°C° 0 mm 2 mps 732 mmHg 37%
    17:00 +8°C° 0 mm 2 mps 732 mmHg 39%
    18:00 +7°C° 0 mm 2 mps 732 mmHg 41%
    19:00 +5°C° 0 mm 2 mps 732 mmHg 43%
    20:00 +5°C° 0 mm 2 mps 733 mmHg 39%
    21:00 +4°C° 0 mm 2 mps 733 mmHg 35%
    22:00 +4°C° 0 mm 2 mps 734 mmHg 31%
    23:00 +4°C° 0 mm 2 mps 734 mmHg 33%

    Tomorrow, 21 March, Thursday

    Time Temperature Precipitation Wind Pressure Humidity
    00:00 +3°C° 0 mm 2 mps 734 mmHg 36%
    01:00 +3°C° 0 mm 2 mps 734 mmHg 38%
    02:00 +3°C° 0 mm 2 mps 734 mmHg 41%
    03:00 +3°C° 0 mm 2 mps 734 mmHg 43%
    04:00 +3°C° 0 mm 2 mps 734 mmHg 46%
    05:00 +3°C° 0 mm 2 mps 734 mmHg 47%
    06:00 +3°C° 0 mm 2 mps 734 mmHg 48%
    07:00 +3°C° 0 mm 2 mps 734 mmHg 49%
    08:00 +5°C° 0 mm 2 mps 734 mmHg 46%
    09:00 +7°C° 0 mm 2 mps 735 mmHg 43%
    10:00 +8°C° 0 mm 2 mps 735 mmHg 40%
    11:00 +10°C° 0 mm 3 mps 734 mmHg 38%
    12:00 +11°C° 0 mm 3 mps 734 mmHg 35%
    13:00 +12°C° 0 mm 3 mps 734 mmHg 32%
    14:00 +12°C° 0 mm 3 mps 734 mmHg 31%
    15:00 +12°C° 0 mm 3 mps 733 mmHg 30%
    16:00 +12°C° 0 mm 3 mps 733 mmHg 29%
    17:00 +12°C° 0 mm 2 mps 733 mmHg 31%
    18:00 +9°C° 0 mm 2 mps 733 mmHg 33%
    19:00 +7°C° 0 mm 2 mps 733 mmHg 34%
    20:00 +6°C° 0 mm 2 mps 733 mmHg 31%
    21:00 +6°C° 0 mm 2 mps 734 mmHg 27%
    22:00 +6°C° 0 mm 2 mps 734 mmHg 23%
    23:00 +5°C° 0 mm 2 mps 734 mmHg 24%

    Day after tomorrow, 22 March, Friday

    Time Temperature Precipitation Wind Pressure Humidity
    00:00 +5°C° 0 mm 2 mps 734 mmHg 24%
    01:00 +5°C° 0 mm 2 mps 734 mmHg 25%
    02:00 +5°C° 0 mm 2 mps 734 mmHg 25%
    03:00 +5°C° 0 mm 2 mps 734 mmHg 25%
    04:00 +4°C° 0 mm 2 mps 734 mmHg 25%
    05:00 +5°C° 0 mm 2 mps 733 mmHg 25%
    06:00 +5°C° 0 mm 2 mps 733 mmHg 24%
    07:00 +5°C° 0 mm 2 mps 733 mmHg 24%
    08:00 +7°C° 0 mm 2 mps 733 mmHg 23%
    09:00 +10°C° 0 mm 2 mps 733 mmHg 22%
    10:00 +14°C° 0 mm 1 mps 733 mmHg 20%
    11:00 +15°C° 0 mm 2 mps 733 mmHg 20%
    12:00 +16°C° 0 mm 2 mps 733 mmHg 20%
    13:00 +17°C° 0 mm 2 mps 733 mmHg 19%
    14:00 +17°C° 0 mm 2 mps 733 mmHg 20%
    15:00 +17°C° 0 mm 2 mps 732 mmHg 20%
    16:00 +17°C° 0 mm 2 mps 732 mmHg 21%
    17:00 +15°C° 0 mm 2 mps 732 mmHg 25%
    18:00 +13°C° 0 mm 1 mps 732 mmHg 30%
    19:00 +10°C° 0 mm 1 mps 732 mmHg 34%
    20:00 +10°C° 0 mm 1 mps 732 mmHg 29%
    21:00 +8°C° 0 mm 2 mps 732 mmHg 25%
    22:00 +8°C° 0 mm 2 mps 733 mmHg 20%
    23:00 +7°C° 0 mm 2 mps 732 mmHg 17%

    23 March, Saturday

    Time Temperature Precipitation Wind Pressure Humidity
    00:00 +7°C° 0 mm 2 mps 732 mmHg 14%
    01:00 +7°C° 0 mm 2 mps 732 mmHg 11%
    02:00 +7°C° 0 mm 2 mps 732 mmHg 12%
    03:00 +7°C° 0 mm 2 mps 732 mmHg 13%
    04:00 +7°C° 0 mm 2 mps 732 mmHg 14%
    05:00 +7°C° 0 mm 2 mps 732 mmHg 16%
    06:00 +7°C° 0 mm 2 mps 731 mmHg 18%
    07:00 +7°C° 0 mm 2 mps 731 mmHg 19%
    08:00 +11°C° 0 mm 1 mps 732 mmHg 19%
    09:00 +13°C° 0 mm 1 mps 732 mmHg 19%
    10:00 +16°C° 0 mm 1 mps 732 mmHg 19%
    11:00 +18°C° 0 mm 1 mps 732 mmHg 19%
    12:00 +18°C° 0 mm 2 mps 732 mmHg 19%
    13:00 +20°C° 0 mm 2 mps 731 mmHg 19%
    14:00 +19°C° 0 mm 2 mps 731 mmHg 20%
    15:00 +19°C° 0 mm 2 mps 731 mmHg 21%
    16:00 +19°C° 0 mm 2 mps 730 mmHg 22%
    17:00 +18°C° 0 mm 1 mps 730 mmHg 28%
    18:00 +15°C° 0 mm 1 mps 730 mmHg 34%
    19:00 +11°C° 0 mm 0 mps 730 mmHg 40%
    20:00 +12°C° 0 mm 1 mps 730 mmHg 39%
    21:00 +11°C° 0 mm 1 mps 730 mmHg 38%
    22:00 +10°C° 0 mm 2 mps 730 mmHg 37%
    23:00 +9°C° 0 mm 2 mps 730 mmHg 34%

    24 March, Sunday

    Time Temperature Precipitation Wind Pressure Humidity
    00:00 +9°C° 0 mm 2 mps 730 mmHg 30%
    01:00 +9°C° 0 mm 2 mps 730 mmHg 27%
    02:00 +8°C° 0 mm 2 mps 730 mmHg 24%
    03:00 +8°C° 0 mm 2 mps 729 mmHg 21%
    04:00 +8°C° 0 mm 2 mps 729 mmHg 17%
    05:00 +8°C° 0 mm 2 mps 729 mmHg 18%
    06:00 +8°C° 0 mm 2 mps 729 mmHg 18%
    07:00 +8°C° 0 mm 2 mps 729 mmHg 18%
    08:00 +12°C° 0 mm 1 mps 729 mmHg 19%
    09:00 +14°C° 0 mm 1 mps 730 mmHg 20%
    10:00 +18°C° 0 mm 1 mps 730 mmHg 21%
    11:00 +19°C° 0 mm 1 mps 730 mmHg 21%
    12:00 +20°C° 0 mm 1 mps 730 mmHg 21%
    13:00 +21°C° 0 mm 1 mps 730 mmHg 22%
    14:00 +21°C° 0 mm 1 mps 729 mmHg 23%
    15:00 +21°C° 0 mm 1 mps 729 mmHg 24%
    16:00 +21°C° 0 mm 1 mps 728 mmHg 25%
    17:00 +19°C° 0 mm 1 mps 728 mmHg 30%
    18:00 +15°C° 0 mm 1 mps 728 mmHg 36%
    19:00 +12°C° 0 mm 0 mps 728 mmHg 42%
    20:00 +13°C° 0 mm 1 mps 728 mmHg 42%
    21:00 +12°C° 0 mm 1 mps 728 mmHg 42%
    22:00 +11°C° 0 mm 1 mps 728 mmHg 42%
    23:00 +10°C° 0 mm 2 mps 728 mmHg 41%

    25 March, Monday

    Time Temperature Precipitation Wind Pressure Humidity
    00:00 +10°C° 0 mm 2 mps 728 mmHg 39%
    01:00 +9°C° 0 mm 2 mps 728 mmHg 37%
    02:00 +9°C° 0 mm 2 mps 727 mmHg 35%
    03:00 +9°C° 0 mm 2 mps 727 mmHg 34%
    04:00 +9°C° 0 mm 2 mps 727 mmHg 32%
    05:00 +8°C° 0 mm 2 mps 727 mmHg 33%
    06:00 +9°C° 0 mm 1 mps 727 mmHg 33%
    07:00 +9°C° 0 mm 1 mps 727 mmHg 34%
    08:00 +12°C° 0 mm 1 mps 727 mmHg 32%
    09:00 +15°C° 0 mm 1 mps 727 mmHg 30%
    10:00 +18°C° 0 mm 1 mps 728 mmHg 28%
    11:00 +20°C° 0 mm 1 mps 727 mmHg 28%
    12:00 +21°C° 0 mm 1 mps 727 mmHg 28%
    13:00 +22°C° 0 mm 1 mps 727 mmHg 28%
    14:00 +22°C° 0 mm 1 mps 726 mmHg 28%
    15:00 +22°C° 0 mm 1 mps 726 mmHg 29%
    16:00 +21°C° 0 mm 1 mps 725 mmHg 29%
    17:00 +19°C° 0 mm 1 mps 725 mmHg 36%
    18:00 +16°C° 0 mm 1 mps 724 mmHg 42%
    19:00 +14°C° 0 mm 1 mps 724 mmHg 48%
    20:00 +14°C° 0 mm 2 mps 724 mmHg 49%
    21:00 +13°C° 0 mm 2 mps 724 mmHg 49%
    22:00 +13°C° 0 mm 2 mps 724 mmHg 49%
    23:00 +12°C° 0 mm 1 mps 724 mmHg 50%
    Show more